Weather History for Chester, CT

Change the Weather History Date:

Tuesday, March 12, 2013

  Actual Average (KHVN) Record (KHVN)
Temperature  
Mean Temperature 48 °F -  
Max Temperature 53 °F 42 °F 67 °F (1973)
Min Temperature 42 °F 28 °F 11 °F (1984)
Degree Days  
Heating Degree Days 18    
Moisture  
Dew Point 48 °F    
Average Humidity 96    
Maximum Humidity 100    
Minimum Humidity 81    
Precipitation  
Precipitation 1.24 in - - ()
Sea Level Pressure  
Sea Level Pressure 29.91 in    
Wind  
Wind Speed 10 mph (South)    
Max Wind Speed 21 mph    
Max Gust Speed 31 mph    
Visibility 5 miles    
Events Fog , Rain    
Averages and records for this station are not official NWS values.
T = Trace of Precipitation, MM = Missing Value Source: NWS Daily Summary

Daily Weather History Graph

Daily Weather History Graph

Search for Another Location

Airport:

Trip Planner

Search our weather history database for the weather conditions in past years. The results will help you decide how hot, cold, wet, or windy it might be!

Date:

Astronomy

Mar. 12, 2013 Rise Set
Actual Time 7:06 AM EDT 6:53 PM EDT
Civil Twilight 6:38 AM EDT 7:21 PM EDT
Nautical Twilight 6:06 AM EDT 7:53 PM EDT
Astronomical Twilight 5:34 AM EDT 8:25 PM EDT
Moon 7:10 AM EDT (3/12) 8:07 PM EDT (3/12)
Length of Visible Light 12h 42m
Length of Day
11h 47m
New Moon, 1% of the Moon is Illuminated
Mar 12
New Moon
Mar 19
First Quarter
Mar 27
Full
Apr 3
Last Quarter
Apr 10
New

Hourly Weather History & Observations

Time (EDT) Temp. Windchill Dew Point Humidity Pressure Visibility Wind Dir Wind Speed Gust Speed Precip Events Conditions
12:15 AM 42.8 °F 38.6 °F 42.8 °F 100% 30.12 in 4.0 mi South 6.9 mph - N/A   Overcast
12:35 AM 44.6 °F 40.7 °F 44.6 °F 100% 30.12 in 3.0 mi South 6.9 mph - N/A   Overcast
12:55 AM 44.6 °F 40.7 °F 44.6 °F 100% 30.11 in 4.0 mi South 6.9 mph - N/A   Overcast
1:15 AM 44.6 °F 40.2 °F 44.6 °F 100% 30.11 in 5.0 mi South 8.1 mph - N/A   Mostly Cloudy
1:35 AM 44.6 °F 40.2 °F 44.6 °F 100% 30.10 in 7.0 mi South 8.1 mph - N/A   Partly Cloudy
1:55 AM 46.4 °F 41.9 °F 46.4 °F 100% 30.08 in 7.0 mi South 9.2 mph - N/A   Partly Cloudy
2:15 AM 46.4 °F 41.9 °F 46.4 °F 100% 30.06 in 7.0 mi South 9.2 mph 18.4 mph N/A   Clear
2:35 AM 46.4 °F 41.1 °F 46.4 °F 100% 30.06 in 7.0 mi South 11.5 mph - N/A   Clear
2:55 AM 46.4 °F 42.4 °F 46.4 °F 100% 30.05 in 7.0 mi South 8.1 mph - N/A   Clear
3:15 AM 46.4 °F 41.9 °F 46.4 °F 100% 30.04 in 8.0 mi South 9.2 mph - N/A   Clear
3:35 AM 48.2 °F - 46.4 °F 93% 30.04 in 9.0 mi South 8.1 mph - N/A   Clear
3:55 AM 48.2 °F - 46.4 °F 93% 30.04 in 10.0 mi South 9.2 mph - N/A   Clear
4:35 AM 48.2 °F - 46.4 °F 93% 30.04 in 9.0 mi South 11.5 mph 16.1 mph N/A   Mostly Cloudy
4:55 AM 48.2 °F - 46.4 °F 93% 30.04 in 10.0 mi South 11.5 mph 18.4 mph N/A   Scattered Clouds
5:15 AM 48.2 °F - 46.4 °F 93% 30.03 in 10.0 mi South 9.2 mph 18.4 mph N/A   Scattered Clouds
5:35 AM 48.2 °F - 46.4 °F 93% 30.03 in 10.0 mi SSE 6.9 mph - N/A   Mostly Cloudy
5:55 AM 48.2 °F - 46.4 °F 93% 30.03 in 9.0 mi South 8.1 mph - N/A   Mostly Cloudy
6:15 AM 48.2 °F - 46.4 °F 93% 30.02 in 10.0 mi South 8.1 mph - N/A   Scattered Clouds
6:35 AM 48.2 °F - 46.4 °F 93% 30.02 in 8.0 mi South 6.9 mph - N/A   Mostly Cloudy
6:55 AM 50.0 °F - 46.4 °F 87% 30.02 in 9.0 mi South 8.1 mph - N/A   Overcast
7:15 AM 50.0 °F - 46.4 °F 87% 30.02 in 8.0 mi South 8.1 mph - N/A   Overcast
7:35 AM 50.0 °F - 46.4 °F 87% 30.01 in 9.0 mi SSE 8.1 mph - N/A   Mostly Cloudy
7:55 AM 51.8 °F - 46.4 °F 82% 30.02 in 9.0 mi South 9.2 mph - N/A   Mostly Cloudy
8:15 AM 51.8 °F - 46.4 °F 82% 30.02 in 8.0 mi South 6.9 mph - N/A   Mostly Cloudy
8:35 AM 51.8 °F - 46.4 °F 82% 30.02 in 9.0 mi South 6.9 mph - N/A   Overcast
8:55 AM 51.8 °F - 46.4 °F 82% 30.01 in 9.0 mi South 10.4 mph - N/A   Overcast
9:35 AM 51.8 °F - 46.4 °F 82% 30.00 in 9.0 mi South 6.9 mph - N/A   Overcast
9:55 AM 51.8 °F - 46.4 °F 82% 29.99 in 8.0 mi South 8.1 mph - N/A   Overcast
10:15 AM 51.8 °F - 46.4 °F 82% 29.98 in 8.0 mi South 8.1 mph - N/A Rain Light Rain
10:35 AM 51.8 °F - 48.2 °F 88% 29.98 in 5.0 mi South 12.7 mph 18.4 mph 0.01 in Rain Light Rain
10:55 AM 51.8 °F - 48.2 °F 88% 29.97 in 4.0 mi South 8.1 mph 16.1 mph 0.02 in Rain Light Rain
11:15 AM 51.8 °F - 50.0 °F 94% 29.96 in 3.0 mi South 10.4 mph - 0.01 in Rain Light Rain
11:35 AM 51.8 °F - 48.2 °F 88% 29.95 in 2.5 mi South 6.9 mph - 0.03 in Rain Light Rain
11:55 AM 51.8 °F - 50.0 °F 94% 29.94 in 2.5 mi South 10.4 mph - 0.05 in Rain Rain
12:15 PM 51.8 °F - 50.0 °F 94% 29.93 in 2.5 mi South 10.4 mph 16.1 mph 0.02 in Rain Rain
12:35 PM 51.8 °F - 51.8 °F 100% 29.92 in 2.0 mi South 13.8 mph 19.6 mph 0.06 in Rain Light Rain
12:55 PM 51.8 °F - 51.8 °F 100% 29.91 in 2.5 mi South 15.0 mph 20.7 mph 0.09 in Rain Rain
1:15 PM 51.8 °F - 51.8 °F 100% 29.90 in 2.0 mi South 15.0 mph 24.2 mph 0.02 in Rain Rain
1:35 PM 51.8 °F - 51.8 °F 100% 29.89 in 1.5 mi South 12.7 mph 20.7 mph 0.07 in Rain Rain
1:55 PM 51.8 °F - 51.8 °F 100% 29.87 in 1.5 mi South 17.3 mph 25.3 mph 0.13 in Rain Rain
2:15 PM 51.8 °F - 51.8 °F 100% 29.85 in 1.8 mi South 15.0 mph 19.6 mph 0.03 in Rain Rain
2:35 PM 51.8 °F - 51.8 °F 100% 29.84 in 2.0 mi South 17.3 mph 24.2 mph 0.06 in Rain Light Rain
2:55 PM 51.8 °F - 51.8 °F 100% 29.83 in 1.5 mi South 15.0 mph 21.9 mph 0.11 in Rain Rain
3:15 PM 51.8 °F - 51.8 °F 100% 29.81 in 1.5 mi South 16.1 mph 27.6 mph 0.04 in Rain Rain
3:35 PM 51.8 °F - 51.8 °F 100% 29.80 in 1.5 mi South 15.0 mph 25.3 mph 0.10 in Rain Rain
3:55 PM 51.8 °F - 51.8 °F 100% 29.78 in 1.5 mi South 16.1 mph 25.3 mph 0.18 in Rain Rain
4:15 PM 51.8 °F - 51.8 °F 100% 29.77 in 1.8 mi South 17.3 mph 21.9 mph 0.03 in Rain Rain
4:35 PM 53.6 °F - 53.6 °F 100% 29.75 in 1.5 mi South 19.6 mph 27.6 mph 0.09 in Rain Heavy Rain
4:55 PM 53.6 °F - 53.6 °F 100% 29.73 in 1.2 mi SSE 19.6 mph 29.9 mph 0.19 in Rain Rain
5:15 PM 53.6 °F - 53.6 °F 100% 29.72 in 1.0 mi South 20.7 mph 31.1 mph 0.08 in Rain Heavy Rain
5:35 PM 53.6 °F - 53.6 °F 100% 29.72 in 0.8 mi South 16.1 mph 27.6 mph 0.36 in Rain Heavy Rain
5:55 PM 53.6 °F - 53.6 °F 100% 29.73 in 1.2 mi South 20.7 mph 31.1 mph 0.44 in Rain Rain
6:15 PM 51.8 °F - 51.8 °F 100% 29.73 in 0.8 mi SSW 15.0 mph 29.9 mph 0.03 in Rain Light Rain
6:35 PM 51.8 °F - 51.8 °F 100% 29.74 in 2.5 mi SSW 17.3 mph 29.9 mph 0.03 in   Light Drizzle
6:55 PM 51.8 °F - 51.8 °F 100% 29.75 in 1.2 mi SSW 13.8 mph 24.2 mph 0.03 in   Light Drizzle
7:15 PM 51.8 °F - 51.8 °F 100% 29.75 in 0.5 mi SSW 11.5 mph 23.0 mph N/A Fog Fog
7:35 PM 51.8 °F - 51.8 °F 100% 29.76 in 0.2 mi SSW 10.4 mph 17.3 mph N/A   Light Drizzle
7:55 PM 51.8 °F - 51.8 °F 100% 29.76 in 0.2 mi SW 10.4 mph 18.4 mph N/A Fog Fog
8:15 PM 50.0 °F - 50.0 °F 100% 29.76 in 0.2 mi WSW 5.8 mph 16.1 mph N/A Fog Fog
8:35 PM 50.0 °F - 50.0 °F 100% 29.75 in 0.2 mi WSW 6.9 mph - N/A Fog Fog
8:55 PM 50.0 °F - 50.0 °F 100% 29.76 in 0.2 mi West 5.8 mph - N/A Fog Fog
9:15 PM 50.0 °F - 50.0 °F 100% 29.75 in 0.2 mi West 4.6 mph - N/A Fog Fog
9:35 PM 48.2 °F - 48.2 °F 100% 29.76 in 0.2 mi NW 4.6 mph - N/A Rain Light Rain
9:55 PM 50.0 °F - 50.0 °F 100% 29.75 in 4.0 mi NW 4.6 mph - N/A   Overcast
10:15 PM 48.2 °F - 48.2 °F 100% 29.78 in 10.0 mi NW 11.5 mph 17.3 mph N/A   Overcast
10:35 PM 44.6 °F 39.2 °F 44.6 °F 100% 29.78 in 10.0 mi NNW 10.4 mph 17.3 mph N/A   Overcast
10:55 PM 44.6 °F 37.8 °F 44.6 °F 100% 29.78 in 10.0 mi NNW 15.0 mph 19.6 mph N/A   Overcast
11:15 PM 42.8 °F 34.3 °F 42.8 °F 100% 29.78 in 10.0 mi NNW 19.6 mph 27.6 mph N/A   Mostly Cloudy
11:35 PM 42.8 °F 37.0 °F 39.2 °F 87% 29.79 in 10.0 mi North 10.4 mph 16.1 mph N/A   Clear
11:55 PM 42.8 °F 35.8 °F 37.4 °F 81% 29.79 in 10.0 mi North 13.8 mph 19.6 mph N/A   Clear